Powrót do katalogu

MIYAN WULIAOYUAN

AktywnyŁącznośćSSO
NORAD 63991·PAYLOAD·🇨🇳 China
Ta nazwa satelity nie została jeszcze potwierdzona przez oficjalne źródła.

Wystrzelony May 14, 2025 z Jiuquan Satellite Launch Center

Loading…

Następne Przeloty (najbliższe 24 godziny)

TLE

ŚwieżeSource: Space-Track

Epoka: Sep 14, 2026, 15:59 UTC

1 63991U 25100K   26257.66611480  .00008505  00000-0  38203-3 0  9997
2 63991  97.3558 328.3975 0009117  15.5083 344.6430 15.21360223 74228

Śledź MIYAN WULIAOYUAN w czasie rzeczywistym z AllMySat

Download on the App Store